Regional Weather Roundup
Issued by NWS Upton, NY

Current Version | Previous Version | Text Only | Print | Product List | Glossary On
Versions: 1 2 3 4 5 6 7 8 9 10 11 12 13 14 15 16 17 18 19 20 21 22 23 24 25 26 27 28 29 30 31 32 33 34 35 36 37 38 39 40 41 42 43 44 45 46 47 48 49 50
000 ASUS41 KOKX 092008 RWROKX REGIONAL WEATHER ROUNDUP NATIONAL WEATHER SERVICE NEW YORK NY 300 PM EST FRI DEC 09 2016 NOTE: "FAIR" INDICATES FEW OR NO CLOUDS BELOW 12,000 FEET WITH NO SIGNIFICANT WEATHER AND/OR OBSTRUCTIONS TO VISIBILITY. NYZ071-072-176-178-NJZ106-104-092100- NEW YORK CITY METRO AREA CITY SKY/WX TMP DP RH WIND PRES REMARKS Central Park PTSUNNY 39 11 31 NW10G23 30.13 WCI 32 Wall St Helipt MOCLDY 43 17 35 VRB3 30.14R Bronx Bot Gard N/A 37 12 35 NW15 30.11R WCI 28 LaGuardia APRT PTSUNNY 41 17 38 NW24G35 30.12R Kennedy INTL PTSUNNY 40 11 30 NW23G37 30.12R WCI 30 Breezy Point N/A 37 N/A N/A NW15G25 N/A WCI 28 Newark/Liberty MOSUNNY 38 12 34 W23G32 30.13R WCI 27 Teterboro PTSUNNY 39 12 33 NW18G31 30.12R WCI 30 $$ NYZ177-179-078>081-092100- LONG ISLAND NEW YORK CITY SKY/WX TMP DP RH WIND PRES REMARKS Jones Beach N/A 37 N/A N/A NW21G30 N/A WCI 27 Matinecock PT N/A 39 N/A N/A W28G37 N/A WCI 28 Farmingdale CLOUDY 38 12 34 W15G25 30.10R WCI 29 MacArthur/ISP MOSUNNY 39 14 36 NW23 30.07R WCI 28 Shirley PTSUNNY 38 15 39 NW22G29 30.07R WCI 27 Westhampton CLOUDY 38 15 39 NW17G28 30.07R WCI 28 Southampton N/A 39 23 52 W12 30.03R WCI 32 Bridgehampton NOT AVBL East Hampton PTSUNNY 37 15 40 NW12G21 30.04R WCI 29 Montauk N/A 38 17 42 NW15G23 30.05R WCI 29 $$ NYZ052-065-067-092100- HUDSON VALLEY CITY SKY/WX TMP DP RH WIND PRES REMARKS White Plains PTSUNNY 36 12 37 NW29G46 30.08R WCI 23 Newburgh PTSUNNY 34 14 44 W23G37 30.11R WCI 22 Montgomery PTSUNNY 36 12 37 NW20G32 30.10R WCI 25 Poughkeepsie PTSUNNY 35 11 36 W16G24 30.09R WCI 25 Albany PTSUNNY 29 9 43 W18G28 30.12R WCI 16 $$ NJZ001-105-106-008-010-013-015-019>022-104-092100- NEW JERSEY CITY SKY/WX TMP DP RH WIND PRES REMARKS Newark/Liberty MOSUNNY 38 12 34 W23G32 30.13R WCI 27 Teterboro PTSUNNY 39 12 33 NW18G31 30.12R WCI 30 Caldwell MOSUNNY 37 11 34 NW15G31 30.14R WCI 28 Somerville CLOUDY 37 15 40 NW14G29 30.15R WCI 28 Linden MOCLDY N/A N/A N/A NW17G31 30.14R Sussex PTSUNNY 34 14 43 NW12G23 30.13R WCI 25 Andover N/A 35 11 36 N13G23 30.13R WCI 26 Trenton CLOUDY 36 16 44 NW13G18 30.18R WCI 27 Millville CLOUDY 38 19 46 NW20G26 30.23R WCI 28 Atlantic City PTSUNNY 38 17 42 W22G30 30.20R WCI 27 Wrightstown CLOUDY 37 17 46 W17G25 30.16R WCI 27 Toms River PTSUNNY 38 17 42 NW15G26 30.18R WCI 29 Belmar PTSUNNY 37 17 44 W15G25 30.16R WCI 28 $$ PAZ047>061-062-071-092100- EASTERN PENNSYLVANIA CITY SKY/WX TMP DP RH WIND PRES REMARKS Philadelphia PTSUNNY 38 15 39 NW18G25 30.24R WCI 28 Allentown CLOUDY 35 20 54 NW12 30.18R WCI 27 Scranton CLOUDY 34 16 47 N16 30.15R WCI 24 $$ CTZ002-004>006-009-010-012-RIZ004-006-007-MAZ004-011-015-092100- SOUTHERN NEW ENGLAND IN CT CITY SKY/WX TMP DP RH WIND PRES REMARKS Bradley INTL PTSUNNY 33 13 43 NW22G30 30.07R WCI 21 Hartford PTSUNNY 35 15 44 NW13G26 30.07R WCI 26 Danbury SUNNY 35 11 36 NW8G28 30.07R WCI 29 Wtrbury/Oxford MOSUNNY 34 10 37 NW15G23 30.05R WCI 24 Bridgeport NOT AVBL Meriden PTSUNNY 38 15 39 NW9G20 30.06R WCI 31 New Haven PTSUNNY 37 16 42 NW15G23 30.07R WCI 28 Chester CLOUDY 34 14 44 NW12G21 30.04R WCI 25 Groton SUNNY 40 14 34 NW23G31 30.03R WCI 30 Wilimantic MOSUNNY 34 15 46 NW15G23 30.04R WCI 24 IN RI CITY SKY/WX TMP DP RH WIND PRES REMARKS Providence MOSUNNY 35 12 38 W21G26 30.01R WCI 24 Block Island SUNNY 36 17 46 NW14G25 30.02R WCI 27 Westerly SUNNY 38 11 32 NW7G22 30.03R WCI 33 IN MA CITY SKY/WX TMP DP RH WIND PRES REMARKS Boston PTCLDY 35 11 36 NW16G26 29.99R WCI 25 Worcester SUNNY 29 9 43 W22G32 29.95R WCI 15 Westfield PTSUNNY 33 12 41 W12G26 30.07R WCI 24 Provincetown MOCLDY 36 16 44 NW21G29 29.96R WCI 25 Nantucket PTCLDY 38 16 40 W12G22 29.97R WCI 30 $$ ANZ330-335-338-340-345-350-353-355-092100- COASTAL MARINE OBSERVATIONS STATION/POSITION TIME SKY/WX TEMP WIND PRES VSBY WAVE AIR SEA DIR/SP/G HT/PER (UTC) (F) (DEG/KT/KT) (MB) (MI) (FT/S) NY HARB ENTRANCE 1850 40 51 290/ 25/ 31 1018.4 4/ 4 20 S FIRE ISLAND 1950 40 53 310/ 23/ 29 1018.6 6/ 6 GREAT SOUTH BAY 1930 38 42 N/A 23 SSW MONTAUK P 1850 38 54 290/ 19/ 25 1017.0 5/ 6 15 E BARNEGAT LI 1930 52 N/A 5/ 5 HUDSON CANYON 1850 40 56 1018.6 9/ 8 KINGS POINT 1930 39 46 1019.2 EXECUTION ROCKS 1945 40 290/ 21/ 35 N/A CENTRAL LI SOUND NOT AVBL EASTERN LI SOUND NOT AVBL ROBBINS REEF 1942 38 310/ 26/ 33 1019.8 $$ >>>>>>>>>>>>>>>>>>>>>>>>>>>> KEY <<<<<<<<<<<<<<<<<<<<<<<<<<< > < > SKY/WX - Sky Condition/Present Weather < > TMP - Temperature in Fahrenheit < > DP - Dew Point in Fahrenheit < > RH - Relative Humidity in Percent < > WIND - Direction (from) and Speed in MPH < > PRES - Mean Sea Level Pressure (inches of Hg) < > WCI - Wind Chill Index < > VSB - VISIBILITY IN MILES < > HX - HEAT INDEX < > TC - TEMPERATURE IN CELSIUS < > VRB - VARIABLE WIND DIRECTION < > < >>>>>>>>>>>>>>>>>>>>>>>>>>>> KEY <<<<<<<<<<<<<<<<<<<<<<<<<<<

USA.gov is the U.S. government's official web portal to all federal, state and local government web resources and services.